Regional Weather Roundup
Issued by NWS

Home | Current Version | Previous Version | Graphics & Text | Print | Product List | Glossary On
Versions: 1 2 3 4 5 6 7 8 9 10 11 12 13 14 15 16 17 18 19 20 21 22 23 24 25 26 27 28 29 30 31 32 33 34 35 36 37 38 39 40 41 42 43 44 45 46 47 48 49 50
000
ASUS43 KLSX 190807
RWRMO

WEATHER SUMMARY FOR MISSOURI
NATIONAL WEATHER SERVICE SPRINGFIELD MO
300 AM CDT THU OCT 19 2017

NOTE: "FAIR" INDICATES FEW OR NO CLOUDS BELOW 12,000 FEET WITH NO
       SIGNIFICANT WEATHER AND/OR OBSTRUCTIONS TO VISIBILITY.
       CURRENT SKY AND/OR WEATHER CONDITIONS ARE NOT AVAILABLE FOR
       CHILLICOTHE AND FARMINGTON.

MOZ001>031-035>038-043-044-053-054-190900-
...NORTHERN AND WESTERN MISSOURI...

CITY           SKY/WX    TMP DP  RH WIND       PRES   REMARKS
KANSAS CTY INT CLEAR     53  49  86 SW8       30.07S
KANSAS C DTWN  CLEAR     58  50  75 CALM      30.07R
LEE`S SUMMIT   CLEAR     58  49  72 SW10      30.08R
ST JOSEPH      CLEAR     45  45 100 CALM      30.06R FOG
CHILLICOTHE      N/A     50  49  96 CALM      30.08R
KIRKSVILLE     CLEAR     52  49  89 SW5       30.09R

$$
MOZ066>068-077>081-088>096-101>105-190900-
...SOUTHWEST MISSOURI...

CITY           SKY/WX    TMP DP  RH WIND       PRES   REMARKS
SPRINGFIELD    CLEAR     54  46  74 CALM      30.14R
JOPLIN         CLEAR     54  48  80 S6        30.13R
BRANSON          N/A     52  46  82 CALM      30.15R

$$
MOZ032>034-039>042-045>050-055>058-069>072-190900-
...CENTRAL MISSOURI...

CITY           SKY/WX    TMP DP  RH WIND       PRES   REMARKS
COLUMBIA       CLEAR     52  46  80 S7        30.11S
JEFFERSON CITY CLEAR     50  45  83 SE6       30.12R
ROLLA          CLEAR     53  48  83 S9        30.15R
SEDALIA        CLEAR     60  50  69 SW12      30.11R
WHITEMAN AFB   CLEAR     52  47  83 S8        30.06R
WARRENSBURG    CLEAR     54  46  76 S5        30.09R
OSAGE BEACH    CLEAR     49  46  90 CALM      30.15R

$$
MOZ051-052-059>065-190900-
...EAST CENTRAL MISSOURI...

CITY           SKY/WX    TMP DP  RH WIND       PRES   REMARKS
ST LOUIS INTL  CLEAR     57  49  74 S5        30.14R
SPIRIT OF STL  CLEAR     48  47  96 CALM      30.13R
ST CHARLES     CLEAR     50  46  86 E6        30.13R

$$
MOZ072>076-082>087-097>100-106>115-190900-
...SOUTH CENTRAL AND SOUTHEAST MISSOURI...

CITY           SKY/WX    TMP DP  RH WIND       PRES   REMARKS
CAPE GIRARDEAU CLEAR     52  46  80 CALM      30.18S
FARMINGTON     CLEAR     55  47  74 S8        30.18R
POPLAR BLUFF   CLEAR     48  47  96 CALM      30.18R
WEST PLAINS    CLEAR     57  48  72 S6        30.17R

$$



USA.gov is the U.S. government's official web portal to all federal, state and local government web resources and services.